Regional Weather Roundup
Issued by NWS

Home | Current Version | Previous Version | Text Only | Print | Product List | Glossary Off
Versions: 1 2 3 4 5 6 7 8 9 10 11 12 13 14 15 16 17 18 19 20 21 22 23 24 25 26 27

000
ASUS45 KBOU 280410
RWRCO

WEATHER ROUNDUP FOR COLORADO
NATIONAL WEATHER SERVICE DENVER/BOULDER CO
1000 PM MDT TUE SEP 27 2016

NOTE: "FAIR" INDICATES FEW OR NO CLOUDS BELOW 12000 FEET WITH NO
SIGNIFICANT WEATHER AND/OR OBSTRUCTIONS TO VISIBILITY.

COZ001>005-013-030-031-280500-
...NORTHWEST COLORADO...

CITY           SKY/WX    TMP DP  RH WIND       PRES   REMARKS
CRAIG          FAIR      47  36  65 CALM      30.27R
HAYDEN         FAIR      54  30  40 CALM      30.28S
MEEKER         FAIR      53  38  56 CALM      30.28R
MOUNT WERNER   NOT AVBL
STEAMBOAT SPGS FAIR      54  33  44 CALM      30.30S
WALDEN           N/A     46  28  49 NW5       30.39S
$$

COZ006>008-011-280500-
...WEST CENTRAL VALLEYS...

CITY           SKY/WX    TMP DP  RH WIND       PRES   REMARKS
GRAND JUNCTION FAIR      69  33  26 N10       30.15R
MONTROSE       FAIR      57  38  48 SE8       30.24R
EAGLE          FAIR      57  30  35 E6        30.29R
RIFLE          FAIR      59  38  45 SE6       30.20R
DELTA          FAIR      64  37  37 N8        30.18R
NUCLA          FAIR      63  32  31 NE3       30.26R
$$

COZ017>023-064>068-280500-
...SOUTHWEST COLORADO...

CITY           SKY/WX    TMP DP  RH WIND       PRES   REMARKS
DURANGO        FAIR      51  33  50 SE5       30.27S
CORTEZ         FAIR      54  37  52 NE9       30.23S
PAGOSA SPRINGS FAIR      51  29  43 NE5       30.35S
TELLURIDE      FAIR      53  37  53 CALM      30.45S
WOLF CREEK PAS FAIR      41  23  48 MISG      30.62S
$$

COZ009-010-012-014-032>034-037-058>063-280500-
...CENTRAL COLORADO...

CITY           SKY/WX    TMP DP  RH WIND       PRES   REMARKS
ASPEN          FAIR      49  31  49 SW10      30.35R
BUENA VISTA    FAIR      55  25  31 CALM      30.36R
COPPER MTN     FAIR      50  16  25 CALM      30.63S
BERTHOUD PASS  FAIR      41  28  60 E6        30.66S
COTTONWOOD PAS FAIR      55  23  28 N3        30.49R
GUNNISON       FAIR      54  34  47 CALM      30.33S
KREMMLING      FAIR      54  23  30 CALM      30.34R
LEADVILLE      FAIR      46  20  35 CALM      30.47R
MONARCH PASS   FAIR      45  27  49 E5        30.72R
SALIDA         FAIR      57  30  35 W7        30.39R
SUNLIGHT       FAIR      52  32  46 NW5       30.57R
WILKERSON PASS FAIR      45  21  39 E10       30.60S
$$

COZ069>075-280500-
...SAN LUIS VALLEY/SANGRE DE CRISTO MOUNTAINS...

CITY           SKY/WX    TMP DP  RH WIND       PRES   REMARKS
ALAMOSA        FAIR      47  27  45 S8        30.31R
LA VETA PASS   FAIR      54  28  37 MISG      30.49S
SAGUACHE       NOT AVBL
$$

COZ035-036-038>040-280500-
...NORTHERN COLORADO FRONT RANGE...

CITY           SKY/WX    TMP DP  RH WIND       PRES   REMARKS
DENVER INTL AP FAIR      65  22  19 SE3       30.18R
DMNS CITY PARK   N/A     60  37  42 S3        30.19S
AURORA         CLEAR     62  21  20 SE3       30.21R
FRONT RANGE AP NOT AVBL
ERIE MUNI ARPT FAIR      56  30  36 CALM      30.17S
BOULDER MUN AP FAIR      68  32  26 CALM      30.18R
CENTENNIAL     FAIR      58  29  33 S5        30.22R
BROOMFIELD     PTCLDY    66  27  22 W8        30.21R
FORT COLLINS   FAIR      59  36  41 N7        30.17R
LONGMONT       FAIR      58  32  37 W6        30.18S
$$

COZ041-046-047-076>085-087-088-280500-
...PIKES PEAK/PALMER DIVIDE AND SOUTHERN FOOTHILLS...

CITY           SKY/WX    TMP DP  RH WIND       PRES   REMARKS
COLO. SPRINGS  FAIR      57  32  38 N9        30.25R
A. F. ACADEMY  FAIR      51  31  47 N9        30.26R
SCHRIEVER AFB  NOT AVBL
ELLICOTT       NOT AVBL
FALCON         FAIR      54  32  43 W9        30.29S
FORT CARSON    FAIR      56  33  41 NW6       30.21R
LIMON          FAIR      50  23  34 N8        30.19R
MONUMENT HILL  FAIR      46  27  46 S3        30.31S
TRINIDAD       FAIR      63  32  31 CALM      30.19S
$$

COZ042>045-048>051-090-091-280500-
...NORTHEAST COLORADO...

CITY           SKY/WX    TMP DP  RH WIND       PRES   REMARKS
GREELEY ARPT   FAIR      55  37  50 N10       30.16R
AKRON          FAIR      62  22  21 CALM      30.14R
BURLINGTON     FAIR      56  39  53 CALM      30.11R
WRAY           FAIR      61  32  33 CALM      30.07R
STERLING       FAIR      54  34  47 CALM      30.10S
HOLYOKE        FAIR      54  37  54 W8        30.08S
FORT MORGAN    FAIR      60  28  29 N9        30.14R
$$

COZ086-089-092>099-280500-
...SOUTHEAST COLORADO...

CITY           SKY/WX    TMP DP  RH WIND       PRES   REMARKS
PUEBLO         FAIR      61  29  29 CALM      30.12R
LA JUNTA       FAIR      67  35  30 SE3       30.09F
LAMAR          FAIR      59  34  39 SW7       30.05S
SPRINGFIELD    NOT AVBL
$$




USA.gov is the U.S. government's official web portal to all federal, state and local government web resources and services.